Location: Bermeries
(50.2863°N, 3.7551°E)
Time: 14:06:50
(UTC+00:00)

Nadezhda 1 Rocket - Pass Details

Date: 23 May 2024
Orbit: 941 x 1004 km, 83.0° (Epoch: 16 June)

Event Time Altitude Azimuth Distance (km) Brightness Sun altitude
Rises 01:04:16 0° 350° (N) 3,743 8.1 -16.8°
Reaches altitude 10° 01:06:49 10° 351° (N) 2,791 7.3 -16.6°
Maximum altitude 01:13:16 87° 80° (E) 1,012 4.1 -16.2°
Enters shadow 01:18:19 17° 171° (S) 2,272 5.4 -15.9°
